Location: Arroyo Retuerta
(40.5469°N, 4.3534°W)
Time: 05:19:59
(UTC+00:00)

Cosmos 1536 Rocket - Pass Details

Date: 01 June 2020
Orbit: 606 x 632 km, 82.5° (Epoch: 05 July)

Event Time Altitude Azimuth Distance (km) Brightness Sun altitude
Exits shadow 22:45:44 46° 69° (ENE) 824 4.1 -23.9°
Drops below altitude 10° 22:49:24 10° 19° (NNE) 1,975 6.8 -24.1°
Sets 22:51:41 0° 14° (NNE) 2,888 7.8 -24.3°
